738  
ASUS41 KALY 272010  
RWRALY  
 
NEW YORK STATE HOURLY WEATHER ROUNDUP  
NATIONAL WEATHER SERVICE ALBANY NY  
300 PM EST THU FEB 27 2020  
 
NOTE: "FAIR" INDICATES FEW OR NO CLOUDS BELOW 12,000 FEET WITH NO  
SIGNIFICANT WEATHER AND/OR NO S TO VISIBILITY
.  
 
NYZ032-033-038>043-046>054-057>066-NYZ062>081-082-084-272100-  
EAST  
 
 
CITY SKY/WX TMP DP RH WIND PRES REMARKS
 
ALBANY FLURRIES 34 20 56 W21G31 29.49R WCI 22  
GLENS FALLS CLOUDY 30 17 58 W13G28 29.43R WCI 20  
POUGHKEEPSIE PTSUNNY 39 17 41 W17G30 29.53R WCI 30  
NEWBURGH PTSUNNY 37 19 48 W30G41 29.53R WCI 25  
MONTGOMERY FAIR 37 16 42 W22G35 29.54R WCI 26  
WHITE PLAINS FAIR 40 15 36 W24G38 29.52R WCI 29  
ISLIP PTSUNNY 42 18 37 W25G39 29.55R  
NEW YORK CITY FAIR 42 15 33 W22G36 29.58R  
CENTRAL PARK FAIR 41 15 35 W16G25 29.60R  

 
 
NYZ005>009-017-018-044>046-055-056-272100-  
CENTRAL  
 
 
CITY SKY/WX TMP DP RH WIND PRES REMARKS
 
FULTON MIX PCPN 27 16 63 SW18G35 29.54R WCI 14  
SYRACUSE LGT SNOW 27 19 72 W25G36 29.56R BLWGSNOWWCI 12  
ROME LGT SNOW 26 19 74 W21G31 29.54R WCI 12  
ELMIRA CLOUDY 27 15 61 W21G30 29.63R WCI 13  
BINGHAMTON PTSUNNY 23 12 62 W25G41 29.54R WCI 7  
MONTICELLO CLOUDY 31 18 58 W22G38 29.51R WCI 18  

 
 
NYZ026>034-041>043-087-272100-  
NORTH  
 
 
CITY SKY/WX TMP DP RH WIND PRES REMARKS
 
WATERTOWN HVY SNOW 27 22 81 W32G53 29.44R VSB<1/4 WCI 10  
FORT DRUM NOT AVBL  
OGDENSBURG SNOW 25 21 86 SW17G25 29.33R VSB 1/2 WCI 11  
MASSENA LGT SNOW 24 19 81 SW23G31 29.32R VSB 1 WCI 9  
SARANAC LAKE LGT SNOW 22 16 78 SW22G37 29.25R VSB 3/4 WCI 6  
PLATTSBURGH MIX PCPN 30 22 72 VRB3G22 29.29R  

 
 
NYZ001>004-010>016-019>021-085-272100-  
WEST  
 
 
CITY SKY/WX TMP DP RH WIND PRES REMARKS
 
NIAGARA FALLS SNOW 24 18 77 W36G46 29.64R VSB 1/2 WCI 6  
BUFFALO FLURRIES 25 13 60 W29G41 29.63R WCI 8  
DUNKIRK LGT SNOW 26 14 60 W20G38 29.72R VSB 1 WCI 12  
JAMESTOWN SNOW 19 16 86 W22G32 29.67R VSB 1/4 WCI 3  
WELLSVILLE SNOW 19 15 84 W18G29 29.59S VSB 1/2 WCI 4  
ROCHESTER LGT SNOW 25 15 66 W25G46 29.59R WCI 9  
PENN YAN LGT SNOW 26 14 60 W24G36 29.59R WCI 11  

 
 
KEY  
WCI = WIND CHILL INDEX  
VSB = VISIBILITY  
HX = HEAT INDEX  

 
 
 
CLICK HERE TO GO TO PREVIOUS BULLETINS.

The Nexlab NY Page
The Nexlab VT Page
The Nexlab MA Page
The Nexlab CT Page Main Text Page